Weather History for Belen, NM

Change the Weather History Date:

Sunday, July 28, 2013

  Actual Average (KABQ) Record (KABQ)
Temperature  
Mean Temperature 76 °F 78 °F  
Max Temperature 86 °F 89 °F 103 °F (1995)
Min Temperature 65 °F 67 °F 44 °F (1913)
Degree Days  
Heating Degree Days 0 0  
Month to date heating degree days 0  
Since 1 June heating degree days 4  
Since 1 July heating degree days 0  
Cooling Degree Days 10 13  
Month to date cooling degree days 375  
Year to date cooling degree days 775  
Since 1 June cooling degree days 677  
Growing Degree Days 26 (Base 50)    
Moisture  
Dew Point 60 °F    
Average Humidity 64    
Maximum Humidity 88    
Minimum Humidity 30    
Precipitation  
Precipitation 0.00 in 0.05 in 1.10 in (1939)
Month to date precipitation 1.32  
Year to date precipitation 4.52  
Snow  
Snow 0.00 in - - ()
Month to date snowfall  
Since 1 June snowfall  
Since 1 July snowfall  
Snow Depth -    
Sea Level Pressure  
Sea Level Pressure 30.07 in    
Wind  
Wind Speed 7 mph (SSE)    
Max Wind Speed 33 mph    
Max Gust Speed 39 mph    
Visibility 10 miles    
Events Rain , Thunderstorm    
T = Trace of Precipitation, MM = Missing Value Source: NWS Daily Summary

Daily Weather History Graph

Daily Weather History Graph

Search for Another Location

Airport:

Trip Planner

Search our weather history database for the weather conditions in past years. The results will help you decide how hot, cold, wet, or windy it might be!

Date:

Astronomy

Jul. 28, 2013 Rise Set
Actual Time 6:14 AM MDT 8:12 PM MDT
Civil Twilight 5:46 AM MDT 8:40 PM MDT
Nautical Twilight 5:12 AM MDT 9:14 PM MDT
Astronomical Twilight 4:36 AM MDT 9:50 PM MDT
Moon 11:56 PM MDT (7/28) 12:40 PM MDT (7/28)
Length of Visible Light 14h 53m
Length of Day
13h 57m
Waning Gibbous, 60% of the Moon is Illuminated
Jul 28
Waning Gibbous
Jul 29
Last Quarter
Aug 6
New
Aug 14
First Quarter
Aug 20
Full

Hourly Weather History & Observations

Time (MDT) Temp. Heat Index Dew Point Humidity Pressure Visibility Wind Dir Wind Speed Gust Speed Precip Events Conditions
12:15 AM 69.8 °F - 61.0 °F 73% 30.13 in 10.0 mi South 4.6 mph - N/A   Clear
12:35 AM 70.0 °F - 61.9 °F 75% 30.12 in 10.0 mi South 5.8 mph - N/A   Clear
12:55 AM 70.0 °F - 62.4 °F 77% 30.12 in 10.0 mi SSE 5.8 mph - N/A   Clear
1:15 AM 70.0 °F - 61.9 °F 75% 30.12 in 10.0 mi SSE 8.1 mph - N/A   Clear
1:35 AM 69.3 °F - 61.7 °F 77% 30.11 in 10.0 mi SSE 8.1 mph - N/A   Clear
1:55 AM 68.5 °F - 62.1 °F 80% 30.11 in 10.0 mi South 6.9 mph - N/A   Mostly Cloudy
2:15 AM 69.3 °F - 62.1 °F 78% 30.11 in 10.0 mi South 11.5 mph - N/A   Overcast
2:35 AM 69.4 °F - 62.1 °F 77% 30.10 in 10.0 mi South 10.4 mph - N/A   Scattered Clouds
2:55 AM 69.1 °F - 62.1 °F 78% 30.09 in 10.0 mi South 8.1 mph - N/A   Scattered Clouds
3:15 AM 68.9 °F - 61.9 °F 78% 30.09 in 10.0 mi South 9.2 mph - N/A   Clear
3:35 AM 68.9 °F - 62.1 °F 79% 30.09 in 10.0 mi South 10.4 mph - N/A   Clear
3:55 AM 68.5 °F - 62.1 °F 80% 30.08 in 10.0 mi South 9.2 mph - N/A   Clear
4:15 AM 68.4 °F - 62.1 °F 80% 30.08 in 10.0 mi South 8.1 mph - N/A   Mostly Cloudy
4:35 AM 68.0 °F - 62.4 °F 82% 30.08 in 10.0 mi South 8.1 mph - N/A   Light Drizzle
4:55 AM 67.3 °F - 62.1 °F 83% 30.08 in 10.0 mi South 5.8 mph - N/A   Scattered Clouds
5:15 AM 66.7 °F - 61.9 °F 84% 30.08 in 10.0 mi South 4.6 mph - N/A   Clear
5:35 AM 66.2 °F - 61.9 °F 86% 30.08 in 10.0 mi SSE 4.6 mph - N/A   Clear
5:55 AM 66.2 °F - 61.9 °F 86% 30.08 in 10.0 mi SSE 6.9 mph - N/A   Clear
6:15 AM 65.7 °F - 62.1 °F 88% 30.08 in 10.0 mi SSE 6.9 mph - N/A   Clear
6:35 AM 65.7 °F - 62.1 °F 88% 30.08 in 10.0 mi SSE 4.6 mph - N/A   Clear
6:55 AM 66.0 °F - 62.4 °F 88% 30.09 in 10.0 mi South 4.6 mph - N/A   Clear
7:15 AM 67.5 °F - 62.6 °F 84% 30.09 in 10.0 mi SSW 5.8 mph - N/A   Clear
7:35 AM 69.8 °F - 61.9 °F 76% 30.09 in 10.0 mi SSW 6.9 mph - N/A   Clear
7:55 AM 71.1 °F - 61.0 °F 70% 30.10 in 10.0 mi SSW 4.6 mph - N/A   Clear
8:15 AM 71.1 °F - 60.8 °F 70% 30.11 in 10.0 mi SE 3.5 mph - N/A   Clear
8:35 AM 71.8 °F - 61.3 °F 70% 30.11 in 10.0 mi Calm Calm - N/A   Clear
8:55 AM 72.7 °F - 60.6 °F 66% 30.11 in 10.0 mi Calm Calm - N/A   Clear
9:15 AM 74.3 °F - 58.5 °F 58% 30.12 in 10.0 mi Calm Calm - N/A   Clear
9:35 AM 74.8 °F - 62.2 °F 65% 30.11 in 10.0 mi Calm Calm - N/A   Clear
9:55 AM 75.7 °F - 59.5 °F 57% 30.12 in 10.0 mi WSW 3.5 mph - N/A   Clear
10:15 AM 76.1 °F - 59.4 °F 56% 30.11 in 10.0 mi Calm Calm - N/A   Clear
10:35 AM 77.7 °F - 60.3 °F 55% 30.11 in 10.0 mi South 4.6 mph - N/A   Clear
10:55 AM 77.7 °F - 59.7 °F 54% 30.11 in 10.0 mi SE 6.9 mph - N/A   Clear
11:15 AM 78.4 °F - 58.5 °F 50% 30.11 in 10.0 mi SE 3.5 mph - N/A   Clear
11:35 AM 79.9 °F - 58.6 °F 48% 30.10 in 10.0 mi SE 6.9 mph - N/A   Clear
11:55 AM 81.0 °F 81.5 °F 59.7 °F 48% 30.09 in 10.0 mi SSE 3.5 mph - N/A   Clear
12:15 PM 81.0 °F 81.3 °F 58.8 °F 47% 30.09 in 10.0 mi SE 6.9 mph - N/A   Scattered Clouds
12:35 PM 81.9 °F 81.9 °F 58.5 °F 45% 30.08 in 10.0 mi South 9.2 mph - N/A   Scattered Clouds
12:55 PM 80.6 °F 81.0 °F 58.8 °F 47% 30.07 in 10.0 mi SSE 8.1 mph 17.3 mph N/A   Clear
1:15 PM 80.6 °F 80.7 °F 56.8 °F 44% 30.06 in 10.0 mi SE 5.8 mph - N/A   Clear
1:35 PM 82.6 °F 82.2 °F 57.4 °F 42% 30.05 in 10.0 mi SE 9.2 mph - N/A   Clear
1:55 PM 82.8 °F 82.2 °F 57.0 °F 41% 30.04 in 10.0 mi SE 9.2 mph - N/A   Clear
2:15 PM 84.7 °F 83.7 °F 56.8 °F 38% 30.03 in 10.0 mi SE 6.9 mph - N/A   Clear
2:35 PM 84.6 °F 83.5 °F 56.7 °F 38% 30.01 in 10.0 mi South 9.2 mph - N/A   Clear
2:55 PM 86.4 °F - 52.9 °F 32% 30.01 in 10.0 mi South 4.6 mph - N/A   Mostly Cloudy
3:15 PM 85.3 °F - 50.2 °F 30% 29.99 in 10.0 mi ESE 3.5 mph - N/A   Overcast
3:35 PM 86.5 °F - 52.5 °F 31% 29.98 in 10.0 mi East 4.6 mph - N/A   Scattered Clouds
3:55 PM 86.4 °F 84.5 °F 54.3 °F 33% 29.98 in 10.0 mi NNE 17.3 mph - N/A   Clear
4:15 PM 86.2 °F 84.5 °F 54.9 °F 34% 29.98 in 10.0 mi NE 10.4 mph 15.0 mph N/A   Clear
4:35 PM 85.6 °F 84.5 °F 56.7 °F 37% 29.97 in 10.0 mi NE 9.2 mph - N/A   Scattered Clouds
4:55 PM 77.2 °F - 59.4 °F 54% 29.99 in 10.0 mi NNW 33.4 mph 39.1 mph N/A   Mostly Cloudy
5:15 PM 71.4 °F - 60.3 °F 68% 30.01 in 10.0 mi North 18.4 mph 33.4 mph N/A Rain , Thunderstorm Light Thunderstorms and Rain
5:35 PM 71.4 °F - 59.0 °F 65% 30.01 in 10.0 mi NE 11.5 mph 27.6 mph N/A Rain , Thunderstorm Light Thunderstorms and Rain
5:55 PM 77.4 °F - 54.9 °F 46% 30.01 in 10.0 mi ESE 11.5 mph - N/A Thunderstorm Scattered Clouds
6:15 PM 77.2 °F - 55.6 °F 47% 30.01 in 10.0 mi East 10.4 mph - N/A   Scattered Clouds
6:35 PM 75.4 °F - 59.2 °F 57% 30.04 in 10.0 mi ENE 8.1 mph - N/A Rain Light Rain
6:55 PM 73.9 °F - 60.4 °F 63% 30.03 in 10.0 mi ESE 8.1 mph - N/A   Light Drizzle
7:15 PM 74.7 °F - 60.6 °F 61% 30.03 in 10.0 mi SSE 9.2 mph - N/A   Mostly Cloudy
7:35 PM 75.6 °F - 57.2 °F 53% 30.03 in 10.0 mi SE 6.9 mph - N/A   Scattered Clouds
7:55 PM 74.7 °F - 58.6 °F 57% 30.04 in 10.0 mi South 4.6 mph - N/A   Clear
8:15 PM 73.4 °F - 60.1 °F 63% 30.05 in 10.0 mi SSW 5.8 mph - N/A   Scattered Clouds
8:35 PM 72.1 °F - 63.7 °F 75% 30.06 in 10.0 mi Calm Calm - N/A   Mostly Cloudy
8:55 PM 72.7 °F - 63.9 °F 74% 30.07 in 10.0 mi North 9.2 mph - N/A   Overcast
9:15 PM 72.7 °F - 62.4 °F 70% 30.07 in 10.0 mi NE 6.9 mph - N/A   Mostly Cloudy
9:35 PM 72.1 °F - 62.6 °F 72% 30.07 in 10.0 mi East 3.5 mph - N/A   Mostly Cloudy
9:55 PM 71.1 °F - 63.9 °F 78% 30.08 in 10.0 mi SSW 3.5 mph - N/A   Scattered Clouds
10:15 PM 70.9 °F - 63.7 °F 78% 30.09 in 10.0 mi Calm Calm - N/A   Scattered Clouds
10:35 PM 70.7 °F - 64.0 °F 79% 30.08 in 10.0 mi South 5.8 mph - N/A   Mostly Cloudy
10:55 PM 71.2 °F - 63.3 °F 76% 30.10 in 10.0 mi WSW 10.4 mph - N/A   Overcast
11:15 PM 71.4 °F - 64.2 °F 78% 30.08 in 10.0 mi SSW 9.2 mph - N/A   Light Drizzle
11:35 PM 72.3 °F - 62.8 °F 72% 30.11 in 10.0 mi WNW 12.7 mph 20.7 mph N/A   Mostly Cloudy
11:55 PM 72.9 °F - 60.8 °F 66% 30.11 in 10.0 mi SW 5.8 mph - N/A   Overcast